sat.trackr.live / text

‹ back to catalog

STARLINK-36168

NORAD 68677 · 2026-077R

PAYLOAD ACTIVE UNKNOWN

§ Identity

Operator
Country
US
Launch date
2026-04-11
Launch site
AFWTR
Launch vehicle
Mass (kg)
RCS (m²)

Purposes: comms

External: N2YO · Heavens-Above · Gunter

§ Orbital elements

Epoch: 2026-05-25T02:57:41.747040Z

Period
93.91 min
Inclination
97.2856°
Eccentricity
0.0001223
Mean motion
15.33457701 rev/d
Perigee alt
464.7 km
Apogee alt
466.3 km
Semi-major
6,843.6 km
B*
4.2666e-4
RAAN
16.7267°
Arg perigee
99.2616°
Mean anomaly
260.8765°
Rev number
687

§ Raw data

STARLINK-361681 68677U 26077R   26145.12339985  .00013730  00000+0  42666-3 0  99942 68677  97.2856  16.7267 0001223  99.2616 260.8765 15.33457701  6874

JSON: /api/v1/satellites/68677 · /tle

For live sub-satellite position, see the globe view (requires WebGL).

§ Visibility from observer

Set your observer location to see the next 7 days of passes ≥ 10°. The values pass through the URL so the page stays shareable.

No JS? Fill the form by hand. The geolocation button needs JavaScript.